Zurück zum Katalog

MOZHAYETS

AktivAmateurfunkSSO
NORAD 27560·PAYLOAD·🇷🇺 Russia

Gestartet Nov 28, 2002 von Plesetsk Cosmodrome

Loading…

Nächste Überflüge (nächste 24 Stunden)

TLE

AktuellSource: Space-Track

Epoche: Sep 14, 2026, 15:26 UTC

1 27560U 02054B   26257.64328616  .00000350  00000-0  79375-4 0  9992
2 27560  98.4277 116.2138 0039283  98.3510 319.0259 14.61877813265347

Verfolge MOZHAYETS in Echtzeit mit AllMySat

Download on the App Store